Location: Newark
(40.4667°N, 5.6000°W)
Time: 08:22:22
(UTC+00:00)

deb Explorer IX - Visible Passes

Search period start: 17 November 2019 00:00
Search period end: 27 November 2019 00:00
Orbit: 546 x 1105 km, 38.8° (Epoch: 16 November)

Date Brightness Start Highest point End Pass type
(mag) Time Alt. Az. Time Alt. Az. Time Alt. Az.
17 Nov ? 04:48:11 69° SE 04:48:11 69° SE 04:52:25 10° E visible
17 Nov ? 06:29:50 10° W 06:34:27 42° SSW 06:38:31 10° SE visible
18 Nov ? 04:27:27 43° ESE 04:27:27 43° ESE 04:30:37 10° E visible
18 Nov ? 06:08:50 15° W 06:12:33 42° SSW 06:16:44 10° SE visible
19 Nov ? 04:06:44 27° ESE 04:06:44 27° ESE 04:08:50 10° E visible
19 Nov ? 05:48:06 24° WSW 05:50:39 42° SSW 05:54:56 10° SE visible
20 Nov ? 03:46:01 17° E 03:46:01 17° E 03:47:02 10° E visible
20 Nov ? 05:27:25 35° WSW 05:28:43 42° SSW 05:33:07 10° SE visible
21 Nov ? 05:06:43 43° SSW 05:06:47 43° SSW 05:11:18 10° SE visible
22 Nov ? 04:46:04 37° SSE 04:46:04 37° SSE 04:49:29 10° SE visible
22 Nov ? 06:28:49 10° WSW 06:30:48 12° SW 06:32:42 10° SSW visible
23 Nov ? 04:25:27 25° SSE 04:25:27 25° SSE 04:27:40 10° SE visible
23 Nov ? 06:06:51 10° WSW 06:08:51 13° SW 06:10:55 10° SSW visible
24 Nov ? 04:04:54 15° SE 04:04:54 15° SE 04:05:50 10° SE visible
24 Nov ? 05:46:17 13° SW 05:46:53 13° SW 05:49:06 10° SSW visible
25 Nov ? 05:25:45 13° SSW 05:25:45 13° SSW 05:27:17 10° SSW visible
26 Nov ? 05:05:16 10° SSW 05:05:16 10° SSW 05:05:28 10° SSW visible
